Time,TemperatureF,DewpointF,PressureIn,WindDirection,WindDirectionDegrees,WindSpeedMPH,WindSpeedGustMPH,Humidity,HourlyPrecipIn,Conditions,Clouds,dailyrainin,SolarRadiationWatts/m^2,SoftwareType,DateUTC
2013-01-26 00:21:00,28.0,27.0,-100.00,South,182,5.0,8.0,97,0.00,,,0.10,0.000000,,2013-01-26 07:21:00,
2013-01-26 00:33:00,28.0,27.0,-100.00,South,182,5.0,8.0,97,0.00,,,0.10,0.000000,,2013-01-26 07:33:00,
2013-01-26 00:41:00,28.0,27.0,-100.00,South,182,5.0,8.0,97,0.00,,,0.10,0.000000,,2013-01-26 07:41:00,
2013-01-26 00:51:00,28.0,27.0,-100.00,South,182,5.0,8.0,97,0.00,,,0.10,0.000000,,2013-01-26 07:51:00,
2013-01-26 01:21:00,28.0,27.0,-100.00,SSW,211,8.0,11.0,97,0.00,,,0.10,0.000000,,2013-01-26 08:21:00,
2013-01-26 01:31:00,28.0,27.0,-100.00,SSW,211,8.0,11.0,97,0.00,,,0.10,0.000000,,2013-01-26 08:31:00,
2013-01-26 01:41:00,28.0,27.0,-100.00,SSW,211,8.0,11.0,97,0.00,,,0.10,0.000000,,2013-01-26 08:41:00,
2013-01-26 01:53:00,28.0,27.0,-100.00,SSW,211,8.0,11.0,97,0.00,,,0.10,0.000000,,2013-01-26 08:53:00,
2013-01-26 02:22:00,28.0,27.0,-100.00,SSW,209,6.0,11.0,97,0.00,,,0.10,0.000000,,2013-01-26 09:22:00,
2013-01-26 02:31:00,28.0,27.0,-100.00,SSW,209,6.0,11.0,97,0.00,,,0.10,0.000000,,2013-01-26 09:31:00,
2013-01-26 02:42:00,28.0,27.0,-100.00,SSW,209,6.0,11.0,97,0.00,,,0.10,0.000000,,2013-01-26 09:42:00,
2013-01-26 02:51:00,28.0,27.0,-100.00,SSW,209,6.0,11.0,97,0.00,,,0.10,0.000000,,2013-01-26 09:51:00,
2013-01-26 03:21:00,28.0,27.0,-100.00,SSW,194,7.0,11.0,97,0.00,,,0.10,1.000000,,2013-01-26 10:21:00,
2013-01-26 03:31:00,28.0,27.0,-100.00,SSW,194,7.0,11.0,97,0.00,,,0.10,1.000000,,2013-01-26 10:31:00,
2013-01-26 03:42:00,28.0,27.0,-100.00,SSW,194,7.0,11.0,97,0.00,,,0.10,1.000000,,2013-01-26 10:42:00,
2013-01-26 03:52:00,28.0,27.0,-100.00,SSW,194,7.0,11.0,97,0.00,,,0.10,1.000000,,2013-01-26 10:52:00,
2013-01-26 04:22:00,28.0,27.0,-100.00,SSW,193,5.0,12.0,97,0.00,,,0.10,1.000000,,2013-01-26 11:22:00,
2013-01-26 04:32:00,28.0,27.0,-100.00,SSW,193,5.0,12.0,97,0.00,,,0.10,1.000000,,2013-01-26 11:32:00,
2013-01-26 04:42:00,28.0,27.0,-100.00,SSW,193,5.0,12.0,97,0.00,,,0.10,1.000000,,2013-01-26 11:42:00,
2013-01-26 04:52:00,28.0,27.0,-100.00,SSW,193,5.0,12.0,97,0.00,,,0.10,1.000000,,2013-01-26 11:52:00,
2013-01-26 05:22:00,28.0,27.0,-100.00,SSW,197,6.0,11.0,97,0.00,,,0.10,0.000000,,2013-01-26 12:22:00,
2013-01-26 05:33:00,28.0,27.0,-100.00,SSW,197,6.0,11.0,97,0.00,,,0.10,0.000000,,2013-01-26 12:33:00,
2013-01-26 05:42:00,28.0,27.0,-100.00,SSW,197,6.0,11.0,97,0.00,,,0.10,0.000000,,2013-01-26 12:42:00,
2013-01-26 05:52:00,28.0,27.0,-100.00,SSW,197,6.0,11.0,97,0.00,,,0.10,0.000000,,2013-01-26 12:52:00,
2013-01-26 06:22:00,28.0,27.0,-100.00,South,184,5.0,11.0,97,0.00,,,0.10,1.000000,,2013-01-26 13:22:00,
2013-01-26 06:32:00,28.0,27.0,-100.00,South,184,5.0,11.0,97,0.00,,,0.10,1.000000,,2013-01-26 13:32:00,
2013-01-26 06:42:00,28.0,27.0,-100.00,South,184,5.0,11.0,97,0.00,,,0.10,1.000000,,2013-01-26 13:42:00,
2013-01-26 06:52:00,28.0,27.0,-100.00,South,184,5.0,11.0,97,0.00,,,0.10,1.000000,,2013-01-26 13:52:00,
2013-01-26 07:21:00,28.0,27.0,-100.00,SSE,160,5.0,9.0,97,0.00,,,0.10,0.000000,,2013-01-26 14:21:00,
2013-01-26 07:32:00,28.0,27.0,-100.00,SSE,160,5.0,9.0,97,0.00,,,0.10,0.000000,,2013-01-26 14:32:00,
2013-01-26 07:42:00,28.0,27.0,-100.00,SSE,160,5.0,9.0,97,0.00,,,0.10,0.000000,,2013-01-26 14:42:00,
2013-01-26 07:52:00,28.0,27.0,-100.00,SSE,160,5.0,9.0,97,0.00,,,0.10,0.000000,,2013-01-26 14:52:00,
2013-01-26 08:22:00,28.0,27.0,-100.00,SSE,148,3.0,6.0,97,0.00,,,0.10,5.000000,,2013-01-26 15:22:00,
2013-01-26 08:32:00,28.0,27.0,-100.00,SSE,148,3.0,6.0,97,0.00,,,0.10,5.000000,,2013-01-26 15:32:00,
2013-01-26 08:43:00,28.0,27.0,-100.00,SSE,148,3.0,6.0,97,0.00,,,0.10,5.000000,,2013-01-26 15:43:00,
2013-01-26 08:52:00,28.0,27.0,-100.00,SSE,148,3.0,6.0,97,0.00,,,0.10,5.000000,,2013-01-26 15:52:00,
2013-01-26 09:22:00,29.0,28.0,-100.00,SSE,156,4.0,5.0,96,0.00,,,0.10,49.000000,,2013-01-26 16:22:00,
2013-01-26 09:32:00,29.0,28.0,-100.00,SSE,156,4.0,5.0,96,0.00,,,0.10,49.000000,,2013-01-26 16:32:00,
2013-01-26 09:42:00,29.0,28.0,-100.00,SSE,156,4.0,5.0,96,0.00,,,0.10,49.000000,,2013-01-26 16:42:00,
2013-01-26 09:52:00,29.0,28.0,-100.00,SSE,156,4.0,5.0,96,0.00,,,0.10,49.000000,,2013-01-26 16:52:00,
2013-01-26 10:22:00,30.0,29.0,-100.00,SSE,153,6.0,7.0,95,0.00,,,0.10,118.000000,,2013-01-26 17:22:00,
2013-01-26 10:32:00,30.0,29.0,-100.00,SSE,153,6.0,7.0,95,0.00,,,0.10,118.000000,,2013-01-26 17:32:00,
2013-01-26 10:42:00,30.0,29.0,-100.00,SSE,153,6.0,7.0,95,0.00,,,0.10,118.000000,,2013-01-26 17:42:00,
2013-01-26 10:52:00,30.0,29.0,-100.00,SSE,153,6.0,7.0,95,0.00,,,0.10,118.000000,,2013-01-26 17:52:00,
2013-01-26 11:22:00,30.0,28.0,-100.00,SSE,153,7.0,9.0,94,0.00,,,0.10,200.000000,,2013-01-26 18:22:00,
2013-01-26 11:32:00,30.0,28.0,-100.00,SSE,153,7.0,9.0,94,0.00,,,0.10,200.000000,,2013-01-26 18:32:00,
2013-01-26 11:42:00,30.0,28.0,-100.00,SSE,153,7.0,9.0,94,0.00,,,0.10,200.000000,,2013-01-26 18:42:00,
2013-01-26 11:52:00,30.0,28.0,-100.00,SSE,153,7.0,9.0,94,0.00,,,0.10,200.000000,,2013-01-26 18:52:00,
2013-01-26 12:22:00,34.0,32.0,-100.00,SSE,159,8.0,10.0,91,0.06,,,0.16,356.000000,,2013-01-26 19:22:00,
2013-01-26 12:32:00,34.0,32.0,-100.00,SSE,159,8.0,10.0,91,0.06,,,0.16,356.000000,,2013-01-26 19:32:00,
2013-01-26 12:42:00,34.0,32.0,-100.00,SSE,159,8.0,10.0,91,0.06,,,0.16,356.000000,,2013-01-26 19:42:00,
2013-01-26 12:52:00,34.0,32.0,-100.00,SSE,159,8.0,10.0,91,0.06,,,0.16,356.000000,,2013-01-26 19:52:00,
2013-01-26 13:21:00,32.0,30.0,-100.00,SSE,166,6.0,11.0,94,0.01,,,0.09,300.000000,,2013-01-26 20:21:00,
2013-01-26 13:32:00,32.0,30.0,-100.00,SSE,166,6.0,11.0,94,0.01,,,0.09,300.000000,,2013-01-26 20:32:00,
2013-01-26 13:42:00,32.0,30.0,-100.00,SSE,166,6.0,11.0,94,0.01,,,0.09,300.000000,,2013-01-26 20:42:00,
2013-01-26 13:52:00,32.0,30.0,-100.00,SSE,166,6.0,11.0,94,0.01,,,0.09,300.000000,,2013-01-26 20:52:00,
2013-01-26 14:22:00,33.0,31.0,-100.00,SSE,148,4.0,9.0,93,0.00,,,0.07,212.000000,,2013-01-26 21:22:00,
2013-01-26 14:32:00,33.0,31.0,-100.00,SSE,148,4.0,9.0,93,0.00,,,0.07,212.000000,,2013-01-26 21:32:00,
2013-01-26 14:42:00,33.0,31.0,-100.00,SSE,148,4.0,9.0,93,0.00,,,0.07,212.000000,,2013-01-26 21:42:00,
2013-01-26 14:51:00,33.0,31.0,-100.00,SSE,148,4.0,9.0,93,0.00,,,0.07,212.000000,,2013-01-26 21:51:00,
2013-01-26 15:21:00,32.0,30.0,-100.00,ENE,63,3.0,5.0,93,0.00,,,0.07,219.000000,,2013-01-26 22:21:00,
2013-01-26 15:31:00,32.0,30.0,-100.00,ENE,63,3.0,5.0,93,0.00,,,0.07,219.000000,,2013-01-26 22:31:00,
2013-01-26 15:42:00,32.0,30.0,-100.00,ENE,63,3.0,5.0,93,0.00,,,0.07,219.000000,,2013-01-26 22:42:00,
2013-01-26 15:51:00,32.0,30.0,-100.00,ENE,63,3.0,5.0,93,0.00,,,0.07,219.000000,,2013-01-26 22:51:00,
2013-01-26 16:21:00,31.0,29.0,-100.00,NE,56,5.0,6.0,93,0.00,,,0.07,132.000000,,2013-01-26 23:21:00,
2013-01-26 16:32:00,31.0,29.0,-100.00,NE,56,5.0,6.0,93,0.00,,,0.07,132.000000,,2013-01-26 23:32:00,
2013-01-26 16:41:00,31.0,29.0,-100.00,NE,56,5.0,6.0,93,0.00,,,0.07,132.000000,,2013-01-26 23:41:00,
2013-01-26 16:52:00,31.0,29.0,-100.00,NE,56,5.0,6.0,93,0.00,,,0.07,132.000000,,2013-01-26 23:52:00,
2013-01-26 17:21:00,31.0,29.0,-100.00,ESE,119,4.0,6.0,94,0.00,,,0.07,45.000000,,2013-01-27 00:21:00,
2013-01-26 17:32:00,31.0,29.0,-100.00,ESE,119,4.0,6.0,94,0.00,,,0.07,45.000000,,2013-01-27 00:32:00,
2013-01-26 17:41:00,31.0,29.0,-100.00,ESE,119,4.0,6.0,94,0.00,,,0.07,45.000000,,2013-01-27 00:41:00,
2013-01-26 17:51:00,31.0,29.0,-100.00,ESE,119,4.0,6.0,94,0.00,,,0.07,45.000000,,2013-01-27 00:51:00,
2013-01-26 18:22:00,30.0,29.0,-100.00,SSE,159,6.0,8.0,98,0.00,,,0.07,4.000000,,2013-01-27 01:22:00,
2013-01-26 18:32:00,30.0,29.0,-100.00,SSE,159,6.0,8.0,98,0.00,,,0.07,4.000000,,2013-01-27 01:32:00,
2013-01-26 18:41:00,30.0,29.0,-100.00,SSE,159,6.0,8.0,98,0.00,,,0.07,4.000000,,2013-01-27 01:41:00,
2013-01-26 18:51:00,30.0,29.0,-100.00,SSE,159,6.0,8.0,98,0.00,,,0.07,4.000000,,2013-01-27 01:51:00,
2013-01-26 19:21:00,29.0,29.0,-100.00,SSE,158,5.0,8.0,98,0.00,,,0.07,1.000000,,2013-01-27 02:21:00,
2013-01-26 19:31:00,29.0,29.0,-100.00,SSE,158,5.0,8.0,98,0.00,,,0.07,1.000000,,2013-01-27 02:31:00,
2013-01-26 19:41:00,29.0,29.0,-100.00,SSE,158,5.0,8.0,98,0.00,,,0.07,1.000000,,2013-01-27 02:41:00,
2013-01-26 19:52:00,29.0,29.0,-100.00,SSE,158,5.0,8.0,98,0.00,,,0.07,1.000000,,2013-01-27 02:52:00,
2013-01-26 20:21:00,29.0,29.0,-100.00,South,172,4.0,6.0,98,0.00,,,0.07,1.000000,,2013-01-27 03:21:00,
2013-01-26 20:31:00,29.0,29.0,-100.00,South,172,4.0,6.0,98,0.00,,,0.07,1.000000,,2013-01-27 03:31:00,
2013-01-26 20:41:00,29.0,29.0,-100.00,South,172,4.0,6.0,98,0.00,,,0.07,1.000000,,2013-01-27 03:41:00,
2013-01-26 20:51:00,29.0,29.0,-100.00,South,172,4.0,6.0,98,0.00,,,0.07,1.000000,,2013-01-27 03:51:00,
2013-01-26 21:21:00,29.0,29.0,-100.00,South,175,6.0,9.0,98,0.00,,,0.07,1.000000,,2013-01-27 04:21:00,
2013-01-26 21:31:00,29.0,29.0,-100.00,South,175,6.0,9.0,98,0.00,,,0.07,1.000000,,2013-01-27 04:31:00,
2013-01-26 21:41:00,29.0,29.0,-100.00,South,175,6.0,9.0,98,0.00,,,0.07,1.000000,,2013-01-27 04:41:00,
2013-01-26 21:51:00,29.0,29.0,-100.00,South,175,6.0,9.0,98,0.00,,,0.07,1.000000,,2013-01-27 04:51:00,
2013-01-26 22:22:00,28.0,28.0,-100.00,South,191,9.0,13.0,98,0.00,,,0.07,0.000000,,2013-01-27 05:22:00,
2013-01-26 22:32:00,28.0,28.0,-100.00,South,191,9.0,13.0,98,0.00,,,0.07,0.000000,,2013-01-27 05:32:00,
2013-01-26 22:41:00,28.0,28.0,-100.00,South,191,9.0,13.0,98,0.00,,,0.07,0.000000,,2013-01-27 05:41:00,
2013-01-26 22:51:00,28.0,28.0,-100.00,South,191,9.0,13.0,98,0.00,,,0.07,0.000000,,2013-01-27 05:51:00,
2013-01-26 23:21:00,28.0,27.0,-100.00,SSW,199,7.0,14.0,97,0.00,,,0.07,0.000000,,2013-01-27 06:21:00,
2013-01-26 23:31:00,28.0,27.0,-100.00,SSW,199,7.0,14.0,97,0.00,,,0.07,0.000000,,2013-01-27 06:31:00,
2013-01-26 23:41:00,28.0,27.0,-100.00,SSW,199,7.0,14.0,97,0.00,,,0.07,0.000000,,2013-01-27 06:41:00,
2013-01-26 23:51:00,28.0,27.0,-100.00,SSW,199,7.0,14.0,97,0.00,,,0.07,0.000000,,2013-01-27 06:51:00,